PGT274C LTFJ-EHAM

Flight info

Callsign PGT274C
Flight time 3h 11m
Altitude 34000
Route TUDBU1J/06L TUDBU DCT GRN T226 NAVOD DCT INVED/N0448F360 DCT BEGLA DCT KOVEL DCT DITIS DCT LOMKI DCT VARIK DCT KATCE DCT NORKU
Aircraft A320/M-SDE3FGHIRWY/LB1

Departure

Time 2026-05-05 18:48
Airport Istanbul Sabiha Gökçen International Airport (LTFJ)

Arrival

Time 2026-05-05 21:59
Airport Amsterdam Airport Schiphol (EHAM)
Time Latitude Longitude Altitude Speed Heading
2026-05-05 18:03 40.90746 29.31941 311 ft 0 kts 334°
2026-05-05 18:36 40.90740 29.31945 311 ft 4 kts 334°
2026-05-05 18:37 40.90721 29.31957 311 ft 4 kts 334°
2026-05-05 18:37 40.90696 29.31973 310 ft 4 kts 332°
2026-05-05 18:37 40.90674 29.31991 311 ft 4 kts 315°
2026-05-05 18:37 40.90663 29.32014 311 ft 3 kts 249°
2026-05-05 18:38 40.90664 29.32018 311 ft 0 kts 244°
2026-05-05 18:41 40.90661 29.32012 311 ft 2 kts 244°
2026-05-05 18:41 40.90649 29.31978 311 ft 6 kts 244°
2026-05-05 18:41 40.90609 29.31929 311 ft 10 kts 189°
2026-05-05 18:41 40.90532 29.31969 309 ft 14 kts 154°
2026-05-05 18:42 40.90446 29.31951 311 ft 14 kts 235°
2026-05-05 18:42 40.90406 29.31847 311 ft 12 kts 244°
2026-05-05 18:42 40.90374 29.31758 309 ft 10 kts 244°
2026-05-05 18:42 40.90344 29.31675 310 ft 12 kts 244°
2026-05-05 18:43 40.90302 29.31562 310 ft 16 kts 244°
2026-05-05 18:43 40.90248 29.31417 311 ft 19 kts 244°
2026-05-05 18:43 40.90186 29.31241 309 ft 23 kts 243°
2026-05-05 18:43 40.90115 29.31062 310 ft 22 kts 244°
2026-05-05 18:44 40.90046 29.30874 310 ft 23 kts 244°
2026-05-05 18:44 40.89974 29.30678 310 ft 24 kts 244°
2026-05-05 18:44 40.89901 29.30478 311 ft 23 kts 244°
2026-05-05 18:44 40.89834 29.30297 310 ft 23 kts 245°
2026-05-05 18:45 40.89764 29.30103 308 ft 24 kts 244°
2026-05-05 18:45 40.89692 29.29911 307 ft 22 kts 243°
2026-05-05 18:45 40.89622 29.29723 305 ft 24 kts 244°
2026-05-05 18:45 40.89547 29.29523 302 ft 23 kts 244°
2026-05-05 18:46 40.89484 29.29344 302 ft 15 kts 245°
2026-05-05 18:46 40.89425 29.29253 304 ft 12 kts 197°
2026-05-05 18:46 40.89355 29.29281 305 ft 10 kts 155°
2026-05-05 18:46 40.89294 29.29324 304 ft 9 kts 136°
2026-05-05 18:47 40.89291 29.29388 305 ft 5 kts 69°
2026-05-05 18:47 40.89301 29.29417 303 ft 2 kts 65°
2026-05-05 18:47 40.89368 29.29600 308 ft 56 kts 64°
2026-05-05 18:47 40.89636 29.30326 310 ft 117 kts 64°
2026-05-05 18:48 40.90059 29.31466 330 ft 160 kts 64°
2026-05-05 18:48 40.90529 29.32734 1067 ft 146 kts 64°
2026-05-05 18:48 40.90977 29.33953 1678 ft 149 kts 64°
2026-05-05 18:48 40.91436 29.35208 2195 ft 158 kts 64°
2026-05-05 18:49 40.91946 29.36599 2457 ft 179 kts 64°
2026-05-05 18:49 40.92525 29.38174 2671 ft 201 kts 63°
2026-05-05 18:49 40.93174 29.39940 2876 ft 226 kts 63°
2026-05-05 18:49 40.93887 29.41877 3263 ft 246 kts 63°
2026-05-05 18:50 40.94652 29.43954 3848 ft 258 kts 63°
2026-05-05 18:50 40.95448 29.46117 4585 ft 264 kts 63°
2026-05-05 18:50 40.96256 29.48321 5369 ft 268 kts 63°
2026-05-05 18:50 40.97075 29.50562 6157 ft 272 kts 63°
2026-05-05 18:51 40.97902 29.52830 6835 ft 277 kts 63°
2026-05-05 18:51 40.98744 29.55138 7105 ft 280 kts 63°
2026-05-05 18:51 40.99594 29.57458 7910 ft 280 kts 60°
2026-05-05 18:51 41.00759 29.59468 8637 ft 281 kts 38°
2026-05-05 18:52 41.02451 29.60725 9360 ft 281 kts 15°
2026-05-05 18:52 41.04391 29.60991 10083 ft 283 kts 352°
2026-05-05 18:52 41.06342 29.60397 10504 ft 298 kts 344°
2026-05-05 18:52 41.08416 29.59619 10649 ft 322 kts 344°
2026-05-05 18:53 41.10615 29.58769 11045 ft 334 kts 343°
2026-05-05 18:53 41.12867 29.57893 11666 ft 339 kts 344°
2026-05-05 18:53 41.15109 29.57029 12317 ft 342 kts 344°
2026-05-05 18:53 41.17438 29.56137 12973 ft 345 kts 344°
2026-05-05 18:54 41.19725 29.55268 13586 ft 348 kts 344°
2026-05-05 18:54 41.22069 29.54383 14192 ft 351 kts 344°
2026-05-05 18:54 41.24428 29.53512 14805 ft 354 kts 346°
2026-05-05 18:54 41.26830 29.52745 15384 ft 357 kts 347°
2026-05-05 18:55 41.29268 29.52059 15948 ft 360 kts 348°
2026-05-05 18:55 41.31730 29.51406 16492 ft 363 kts 349°
2026-05-05 18:55 41.34216 29.50754 17026 ft 365 kts 349°
2026-05-05 18:55 41.36715 29.50086 17560 ft 368 kts 348°
2026-05-05 18:56 41.39174 29.49265 18062 ft 371 kts 341°
2026-05-05 18:56 41.41595 29.48045 18552 ft 373 kts 339°
2026-05-05 18:56 41.44030 29.46796 19040 ft 376 kts 339°
2026-05-05 18:56 41.46478 29.45539 19526 ft 378 kts 340°
2026-05-05 18:57 41.48943 29.44277 20002 ft 380 kts 340°
2026-05-05 18:57 41.51423 29.43004 20451 ft 383 kts 340°
2026-05-05 18:57 41.53919 29.41722 20896 ft 386 kts 340°
2026-05-05 18:57 41.56431 29.40430 21337 ft 388 kts 340°
2026-05-05 18:58 41.58918 29.39124 21747 ft 391 kts 336°
2026-05-05 18:58 41.61258 29.37248 22139 ft 396 kts 323°
2026-05-05 18:58 41.63215 29.34637 22525 ft 401 kts 309°
2026-05-05 18:58 41.64654 29.31423 22900 ft 407 kts 295°
2026-05-05 18:59 41.65460 29.27768 23264 ft 414 kts 281°
2026-05-05 18:59 41.65649 29.23906 23618 ft 418 kts 274°
2026-05-05 18:59 41.65738 29.20007 23972 ft 421 kts 274°
2026-05-05 18:59 41.65824 29.16083 24320 ft 423 kts 274°
2026-05-05 19:00 41.65910 29.12138 24668 ft 425 kts 274°
2026-05-05 19:00 41.65996 29.08228 25004 ft 427 kts 274°
2026-05-05 19:00 41.66088 29.04245 25335 ft 429 kts 274°
2026-05-05 19:00 41.66180 29.00250 25662 ft 431 kts 274°
2026-05-05 19:01 41.66271 28.96232 25985 ft 433 kts 274°
2026-05-05 19:01 41.66359 28.92197 26303 ft 435 kts 274°
2026-05-05 19:01 41.66446 28.88142 26614 ft 437 kts 274°
2026-05-05 19:01 41.66529 28.84075 26916 ft 439 kts 274°
2026-05-05 19:02 41.66613 28.79988 27209 ft 441 kts 274°
2026-05-05 19:02 41.66695 28.75941 27491 ft 442 kts 274°
2026-05-05 19:02 41.66779 28.71820 27769 ft 445 kts 274°
2026-05-05 19:02 41.66861 28.67677 28046 ft 446 kts 274°
2026-05-05 19:03 41.66942 28.63521 28316 ft 448 kts 274°
2026-05-05 19:03 41.67021 28.59341 28570 ft 450 kts 274°
2026-05-05 19:03 41.67087 28.55149 28813 ft 452 kts 273°
2026-05-05 19:03 41.67143 28.50946 29039 ft 453 kts 275°
2026-05-05 19:04 41.67477 28.46817 29265 ft 452 kts 283°
2026-05-05 19:04 41.68285 28.42767 29484 ft 451 kts 292°
2026-05-05 19:04 41.69500 28.38906 29697 ft 451 kts 296°
2026-05-05 19:04 41.70774 28.35059 29913 ft 453 kts 296°
2026-05-05 19:05 41.72045 28.31198 30128 ft 454 kts 296°
2026-05-05 19:05 41.73315 28.27325 30366 ft 455 kts 296°
2026-05-05 19:05 41.74579 28.23442 30683 ft 454 kts 296°
2026-05-05 19:05 41.75832 28.19565 30994 ft 453 kts 296°
2026-05-05 19:06 41.77079 28.15697 31297 ft 452 kts 296°
2026-05-05 19:06 41.78312 28.11881 31604 ft 451 kts 296°
2026-05-05 19:06 41.79726 28.08149 31888 ft 448 kts 304°
2026-05-05 19:06 41.81504 28.04752 32172 ft 445 kts 309°
2026-05-05 19:07 41.83369 28.01452 32460 ft 444 kts 309°
2026-05-05 19:07 41.85230 27.98155 32744 ft 443 kts 309°
2026-05-05 19:07 41.87083 27.94859 33024 ft 442 kts 309°
2026-05-05 19:07 41.88929 27.91569 33313 ft 441 kts 309°
2026-05-05 19:08 41.90771 27.88281 33597 ft 440 kts 309°
2026-05-05 19:08 41.92603 27.85000 33874 ft 439 kts 309°
2026-05-05 19:08 41.94406 27.81763 34045 ft 438 kts 309°
2026-05-05 19:08 41.96227 27.78490 34079 ft 436 kts 309°
2026-05-05 19:09 41.99912 27.72063 34079 ft 433 kts 310°
2026-05-05 19:09 42.03709 27.65764 34085 ft 433 kts 311°
2026-05-05 19:10 42.07505 27.59463 34078 ft 433 kts 311°
2026-05-05 19:10 42.11236 27.53156 34082 ft 434 kts 310°
2026-05-05 19:11 42.14972 27.46783 34079 ft 433 kts 310°
2026-05-05 19:11 42.18707 27.40401 34078 ft 433 kts 310°
2026-05-05 19:12 42.22448 27.34019 34082 ft 434 kts 310°
2026-05-05 19:12 42.26193 27.27642 34078 ft 433 kts 310°
2026-05-05 19:13 42.29905 27.21300 34080 ft 433 kts 310°
2026-05-05 19:13 42.33628 27.14907 34078 ft 433 kts 310°
2026-05-05 19:14 42.37349 27.08500 34080 ft 433 kts 310°
2026-05-05 19:14 42.41073 27.02091 34075 ft 433 kts 310°
2026-05-05 19:15 42.44787 26.95672 34075 ft 432 kts 310°
2026-05-05 19:15 42.48463 26.89298 34073 ft 433 kts 310°
2026-05-05 19:16 42.52169 26.82874 34069 ft 433 kts 310°
2026-05-05 19:16 42.55878 26.76451 34067 ft 433 kts 310°
2026-05-05 19:17 42.59581 26.70011 34063 ft 433 kts 310°
2026-05-05 19:17 42.63250 26.63596 34065 ft 433 kts 310°
2026-05-05 19:18 42.66944 26.57130 34063 ft 433 kts 310°
2026-05-05 19:18 42.70643 26.50647 34063 ft 434 kts 310°
2026-05-05 19:19 42.74336 26.44159 34059 ft 434 kts 310°
2026-05-05 19:19 42.78000 26.37711 34058 ft 433 kts 309°
2026-05-05 19:20 42.81676 26.31219 34052 ft 433 kts 309°
2026-05-05 19:20 42.85352 26.24725 34044 ft 433 kts 309°
2026-05-05 19:21 42.89028 26.18223 34033 ft 433 kts 309°
2026-05-05 19:21 42.92677 26.11740 34035 ft 434 kts 309°
2026-05-05 19:22 42.96349 26.05202 34034 ft 434 kts 309°
2026-05-05 19:22 43.00021 25.98657 34029 ft 434 kts 309°
2026-05-05 19:23 43.03680 25.92104 34048 ft 433 kts 309°
2026-05-05 19:23 43.07332 25.85559 34049 ft 432 kts 309°
2026-05-05 19:24 43.10949 25.79059 34045 ft 432 kts 309°
2026-05-05 19:24 43.14584 25.72509 34039 ft 432 kts 309°
2026-05-05 19:25 43.18182 25.65925 34034 ft 432 kts 308°
2026-05-05 19:25 43.21702 25.59267 34028 ft 431 kts 307°
2026-05-05 19:26 43.25182 25.52649 34036 ft 431 kts 307°
2026-05-05 19:26 43.28701 25.45983 34030 ft 431 kts 308°
2026-05-05 19:27 43.32217 25.39337 34023 ft 430 kts 308°
2026-05-05 19:27 43.35726 25.32688 34030 ft 430 kts 308°
2026-05-05 19:28 43.39207 25.26087 34023 ft 429 kts 308°
2026-05-05 19:28 43.42698 25.19432 34032 ft 429 kts 307°
2026-05-05 19:29 43.46179 25.12771 34029 ft 428 kts 308°
2026-05-05 19:29 43.49650 25.06125 34031 ft 427 kts 307°
2026-05-05 19:30 43.53086 24.99524 34029 ft 427 kts 307°
2026-05-05 19:30 43.56538 24.92882 34031 ft 426 kts 307°
2026-05-05 19:31 43.59982 24.86238 34025 ft 425 kts 307°
2026-05-05 19:31 43.63426 24.79607 34037 ft 425 kts 307°
2026-05-05 19:32 43.66835 24.73014 34028 ft 424 kts 307°
2026-05-05 19:32 43.70250 24.66375 34033 ft 423 kts 307°
2026-05-05 19:33 43.73657 24.59741 34034 ft 423 kts 307°
2026-05-05 19:33 43.77235 24.53314 34038 ft 421 kts 312°
2026-05-05 19:34 43.81020 24.47216 34030 ft 420 kts 312°
2026-05-05 19:35 43.86714 24.38006 34026 ft 419 kts 312°
2026-05-05 19:35 43.90500 24.31859 34023 ft 419 kts 312°
2026-05-05 19:36 43.94281 24.25715 34021 ft 418 kts 312°
2026-05-05 19:36 43.98031 24.19608 34015 ft 418 kts 312°
2026-05-05 19:37 44.01793 24.13462 34008 ft 418 kts 312°
2026-05-05 19:37 44.05557 24.07305 34008 ft 418 kts 312°
2026-05-05 19:38 44.09314 24.01138 34009 ft 418 kts 312°
2026-05-05 19:38 44.13041 23.95007 34006 ft 418 kts 312°
2026-05-05 19:39 44.16788 23.88836 33999 ft 417 kts 311°
2026-05-05 19:39 44.20532 23.82657 33994 ft 417 kts 311°
2026-05-05 19:40 44.24271 23.76467 33991 ft 417 kts 311°
2026-05-05 19:40 44.28007 23.70271 33988 ft 417 kts 311°
2026-05-05 19:41 44.31724 23.64106 33987 ft 418 kts 311°
2026-05-05 19:41 44.35460 23.57896 33985 ft 418 kts 311°
2026-05-05 19:42 44.39192 23.51659 33984 ft 418 kts 311°
2026-05-05 19:42 44.42918 23.45416 33984 ft 418 kts 311°
2026-05-05 19:43 44.46621 23.39214 33982 ft 418 kts 311°
2026-05-05 19:43 44.50345 23.32959 33982 ft 418 kts 311°
2026-05-05 19:44 44.54064 23.26693 33983 ft 419 kts 311°
2026-05-05 19:44 44.57789 23.20415 33982 ft 418 kts 311°
2026-05-05 19:45 44.61481 23.14179 33981 ft 418 kts 311°
2026-05-05 19:45 44.65197 23.07889 33984 ft 419 kts 310°
2026-05-05 19:46 44.68905 23.01583 33982 ft 419 kts 310°
2026-05-05 19:46 44.72610 22.95267 33978 ft 418 kts 310°
2026-05-05 19:47 44.76311 22.88949 33975 ft 418 kts 310°
2026-05-05 19:47 44.79989 22.82666 33972 ft 419 kts 310°
2026-05-05 19:48 44.83690 22.76336 33974 ft 419 kts 310°
2026-05-05 19:48 44.87386 22.69996 33970 ft 419 kts 310°
2026-05-05 19:49 44.91080 22.63639 33967 ft 419 kts 310°
2026-05-05 19:49 44.94743 22.57316 33963 ft 419 kts 310°
2026-05-05 19:50 44.98422 22.50941 33962 ft 419 kts 310°
2026-05-05 19:50 45.02106 22.44559 33968 ft 419 kts 310°
2026-05-05 19:51 45.05787 22.38169 33960 ft 419 kts 310°
2026-05-05 19:51 45.09466 22.31759 33965 ft 419 kts 310°
2026-05-05 19:52 45.13118 22.25389 33958 ft 420 kts 310°
2026-05-05 19:52 45.16796 22.18965 33948 ft 420 kts 310°
2026-05-05 19:53 45.20472 22.12526 33948 ft 420 kts 309°
2026-05-05 19:53 45.24141 22.06071 33949 ft 420 kts 309°
2026-05-05 19:54 45.27810 21.99612 33953 ft 420 kts 309°
2026-05-05 19:54 45.30860 21.94235 33937 ft 421 kts 309°
2026-05-05 19:55 45.35116 21.86704 33936 ft 421 kts 309°
2026-05-05 19:55 45.38783 21.80215 33945 ft 421 kts 309°
2026-05-05 19:56 45.42442 21.73717 33949 ft 421 kts 309°
2026-05-05 19:56 45.46072 21.67245 33937 ft 421 kts 309°
2026-05-05 19:57 45.49723 21.60732 33935 ft 421 kts 309°
2026-05-05 19:57 45.53373 21.54201 33936 ft 421 kts 309°
2026-05-05 19:58 45.56400 21.48773 33948 ft 421 kts 309°
2026-05-05 19:58 45.60632 21.41175 33947 ft 421 kts 309°
2026-05-05 19:59 45.64277 21.34624 33942 ft 421 kts 309°
2026-05-05 19:59 45.67296 21.29172 33937 ft 421 kts 308°
2026-05-05 20:00 45.70923 21.22604 33936 ft 421 kts 308°
2026-05-05 20:00 45.74545 21.16028 33935 ft 421 kts 308°
2026-05-05 20:01 45.78167 21.09443 33936 ft 421 kts 308°
2026-05-05 20:01 45.81785 21.02858 33935 ft 421 kts 308°
2026-05-05 20:02 45.85373 20.96302 33947 ft 421 kts 308°
2026-05-05 20:02 45.88984 20.89695 33948 ft 420 kts 308°
2026-05-05 20:03 45.92583 20.83096 33936 ft 420 kts 308°
2026-05-05 20:03 45.96177 20.76485 33936 ft 420 kts 308°
2026-05-05 20:04 45.99744 20.69912 33936 ft 420 kts 308°
2026-05-05 20:04 46.03329 20.63287 33931 ft 420 kts 307°
2026-05-05 20:05 46.06916 20.56638 33929 ft 421 kts 307°
2026-05-05 20:05 46.10505 20.49971 33930 ft 421 kts 307°
2026-05-05 20:06 46.14068 20.43338 33933 ft 421 kts 307°
2026-05-05 20:06 46.17661 20.36651 33937 ft 421 kts 307°
2026-05-05 20:07 46.21256 20.29971 33952 ft 422 kts 307°
2026-05-05 20:07 46.24859 20.23279 33946 ft 422 kts 307°
2026-05-05 20:08 46.28428 20.16621 33950 ft 422 kts 307°
2026-05-05 20:08 46.32016 20.09910 33949 ft 421 kts 307°
2026-05-05 20:09 46.35597 20.03200 33951 ft 421 kts 307°
2026-05-05 20:09 46.39173 19.96477 33944 ft 421 kts 307°
2026-05-05 20:10 46.42744 19.89743 33945 ft 421 kts 307°
2026-05-05 20:10 46.46290 19.83048 33936 ft 421 kts 307°
2026-05-05 20:11 46.49850 19.76296 33937 ft 421 kts 307°
2026-05-05 20:11 46.53410 19.69539 33936 ft 422 kts 307°
2026-05-05 20:12 46.56969 19.62771 33936 ft 422 kts 306°
2026-05-05 20:12 46.60503 19.56031 33936 ft 422 kts 306°
2026-05-05 20:13 46.64058 19.49232 33935 ft 423 kts 306°
2026-05-05 20:13 46.67619 19.42418 33936 ft 423 kts 306°
2026-05-05 20:14 46.71170 19.35589 33937 ft 423 kts 306°
2026-05-05 20:14 46.74703 19.28789 33947 ft 423 kts 306°
2026-05-05 20:15 46.78253 19.21931 33951 ft 424 kts 306°
2026-05-05 20:15 46.81806 19.15054 33937 ft 424 kts 306°
2026-05-05 20:16 46.85355 19.08172 33937 ft 424 kts 306°
2026-05-05 20:16 46.88877 19.01326 33938 ft 424 kts 306°
2026-05-05 20:17 46.92422 18.94416 33939 ft 425 kts 306°
2026-05-05 20:17 46.95964 18.87501 33935 ft 425 kts 305°
2026-05-05 20:18 46.99503 18.80562 33938 ft 425 kts 305°
2026-05-05 20:18 47.03014 18.73652 33942 ft 426 kts 305°
2026-05-05 20:19 47.06553 18.66686 33947 ft 426 kts 305°
2026-05-05 20:19 47.10085 18.59725 33936 ft 425 kts 305°
2026-05-05 20:20 47.13600 18.52742 33934 ft 425 kts 305°
2026-05-05 20:20 47.17121 18.45756 33930 ft 425 kts 305°
2026-05-05 20:21 47.20616 18.38815 33924 ft 425 kts 305°
2026-05-05 20:21 47.24131 18.31805 33922 ft 426 kts 305°
2026-05-05 20:22 47.27639 18.24791 33918 ft 426 kts 305°
2026-05-05 20:22 47.31149 18.17746 33995 ft 428 kts 305°
2026-05-05 20:22 47.32914 18.14201 34227 ft 429 kts 305°
2026-05-05 20:23 47.34657 18.10699 34476 ft 429 kts 304°
2026-05-05 20:23 47.36418 18.07153 34733 ft 429 kts 304°
2026-05-05 20:23 47.38183 18.03596 34963 ft 429 kts 304°
2026-05-05 20:23 47.39944 18.00040 35181 ft 429 kts 305°
2026-05-05 20:24 47.41706 17.96477 35405 ft 429 kts 304°
2026-05-05 20:24 47.43463 17.92917 35640 ft 429 kts 304°
2026-05-05 20:24 47.45217 17.89357 35839 ft 429 kts 304°
2026-05-05 20:25 47.48727 17.82224 35897 ft 429 kts 304°
2026-05-05 20:25 47.52239 17.75094 35886 ft 429 kts 304°
2026-05-05 20:26 47.55720 17.68002 35887 ft 429 kts 304°
2026-05-05 20:26 47.59216 17.60836 35888 ft 429 kts 304°
2026-05-05 20:27 47.62708 17.53669 35886 ft 429 kts 304°
2026-05-05 20:27 47.66188 17.46494 35884 ft 429 kts 304°
2026-05-05 20:28 47.69647 17.39358 35882 ft 429 kts 304°
2026-05-05 20:28 47.73131 17.32168 35876 ft 429 kts 304°
2026-05-05 20:29 47.76607 17.24962 35867 ft 429 kts 304°
2026-05-05 20:29 47.80051 17.17791 35866 ft 429 kts 304°
2026-05-05 20:30 47.83565 17.10628 35853 ft 430 kts 309°
2026-05-05 20:30 47.87500 17.03934 35841 ft 430 kts 310°
2026-05-05 20:31 47.91450 16.97225 35833 ft 430 kts 309°
2026-05-05 20:31 47.95385 16.90528 35828 ft 430 kts 309°
2026-05-05 20:32 47.99295 16.83844 35819 ft 430 kts 309°
2026-05-05 20:32 48.03229 16.77103 35811 ft 430 kts 309°
2026-05-05 20:33 48.07156 16.70358 35801 ft 430 kts 309°
2026-05-05 20:33 48.11077 16.63585 35793 ft 430 kts 309°
2026-05-05 20:34 48.14993 16.56805 35793 ft 430 kts 309°
2026-05-05 20:34 48.18883 16.50066 35793 ft 431 kts 309°
2026-05-05 20:35 48.22801 16.43267 35788 ft 431 kts 309°
2026-05-05 20:35 48.26719 16.36459 35788 ft 431 kts 309°
2026-05-05 20:36 48.30630 16.29638 35789 ft 431 kts 309°
2026-05-05 20:36 48.34530 16.22803 35786 ft 431 kts 309°
2026-05-05 20:37 48.38400 16.15995 35792 ft 431 kts 309°
2026-05-05 20:37 48.42294 16.09135 35795 ft 431 kts 309°
2026-05-05 20:38 48.46188 16.02265 35793 ft 431 kts 309°
2026-05-05 20:38 48.50081 15.95395 35789 ft 431 kts 309°
2026-05-05 20:39 48.53943 15.88554 35789 ft 431 kts 309°
2026-05-05 20:39 48.57832 15.81652 35790 ft 431 kts 308°
2026-05-05 20:40 48.61708 15.74738 35790 ft 431 kts 308°
2026-05-05 20:40 48.65578 15.67807 35791 ft 431 kts 308°
2026-05-05 20:41 48.69411 15.60928 35791 ft 430 kts 307°
2026-05-05 20:41 48.72701 15.53399 35787 ft 429 kts 300°
2026-05-05 20:42 48.75858 15.45735 35787 ft 429 kts 300°
2026-05-05 20:42 48.79015 15.38070 35787 ft 429 kts 300°
2026-05-05 20:43 48.82166 15.30389 35790 ft 429 kts 300°
2026-05-05 20:43 48.85285 15.22741 35788 ft 429 kts 300°
2026-05-05 20:44 48.88424 15.15040 35791 ft 429 kts 300°
2026-05-05 20:44 48.91969 15.07761 35795 ft 430 kts 309°
2026-05-05 20:45 48.97780 14.97349 35796 ft 430 kts 308°
2026-05-05 20:45 49.01613 14.90436 35791 ft 430 kts 308°
2026-05-05 20:46 49.05472 14.83470 35789 ft 429 kts 308°
2026-05-05 20:46 49.09320 14.76486 35775 ft 431 kts 308°
2026-05-05 20:47 49.13176 14.69483 35787 ft 431 kts 308°
2026-05-05 20:47 49.17024 14.62472 35784 ft 430 kts 308°
2026-05-05 20:48 49.20831 14.55518 35779 ft 430 kts 308°
2026-05-05 20:48 49.24668 14.48493 35767 ft 431 kts 309°
2026-05-05 20:49 49.28512 14.41453 35788 ft 431 kts 308°
2026-05-05 20:49 49.32357 14.34395 35795 ft 431 kts 308°
2026-05-05 20:50 49.36162 14.27365 35793 ft 431 kts 308°
2026-05-05 20:50 49.39981 14.20277 35787 ft 431 kts 308°
2026-05-05 20:51 49.43812 14.13182 35811 ft 431 kts 308°
2026-05-05 20:51 49.47624 14.06081 35822 ft 430 kts 308°
2026-05-05 20:52 49.51399 13.99035 35824 ft 429 kts 308°
2026-05-05 20:52 49.55189 13.91955 35821 ft 428 kts 308°
2026-05-05 20:53 49.58971 13.84864 35818 ft 428 kts 308°
2026-05-05 20:53 49.62743 13.77768 35817 ft 428 kts 308°
2026-05-05 20:54 49.66482 13.70707 35814 ft 428 kts 308°
2026-05-05 20:54 49.70250 13.63593 35813 ft 427 kts 308°
2026-05-05 20:55 49.74008 13.56476 35811 ft 427 kts 308°
2026-05-05 20:55 49.77762 13.49345 35809 ft 427 kts 308°
2026-05-05 20:56 49.81507 13.42206 35803 ft 428 kts 308°
2026-05-05 20:56 49.85233 13.35080 35798 ft 428 kts 307°
2026-05-05 20:57 49.88972 13.27895 35797 ft 429 kts 307°
2026-05-05 20:57 49.92654 13.20604 35797 ft 430 kts 304°
2026-05-05 20:58 49.96091 13.12994 35802 ft 432 kts 302°
2026-05-05 20:58 49.99421 13.05332 35807 ft 432 kts 302°
2026-05-05 20:59 50.02824 12.97605 35810 ft 435 kts 302°
2026-05-05 20:59 50.06273 12.89873 35814 ft 435 kts 303°
2026-05-05 21:00 50.09736 12.82141 35814 ft 435 kts 302°
2026-05-05 21:00 50.13160 12.74445 35814 ft 436 kts 302°
2026-05-05 21:01 50.16592 12.66660 35814 ft 436 kts 302°
2026-05-05 21:01 50.20032 12.58839 35811 ft 438 kts 301°
2026-05-05 21:02 50.23490 12.50981 35800 ft 441 kts 300°
2026-05-05 21:02 50.26971 12.43043 35802 ft 444 kts 299°
2026-05-05 21:03 50.30466 12.35122 35804 ft 447 kts 301°
2026-05-05 21:03 50.34238 12.27350 35808 ft 450 kts 303°
2026-05-05 21:04 50.38124 12.19661 35816 ft 451 kts 303°
2026-05-05 21:04 50.41952 12.11947 35822 ft 451 kts 302°
2026-05-05 21:05 50.45750 12.04108 35832 ft 451 kts 302°
2026-05-05 21:05 50.49536 11.96246 35836 ft 452 kts 302°
2026-05-05 21:06 50.53335 11.88362 35834 ft 452 kts 302°
2026-05-05 21:06 50.57130 11.80477 35831 ft 453 kts 302°
2026-05-05 21:07 50.60907 11.72604 35830 ft 453 kts 302°
2026-05-05 21:07 50.64703 11.64676 35832 ft 454 kts 302°
2026-05-05 21:08 50.68498 11.56728 35830 ft 454 kts 302°
2026-05-05 21:08 50.72259 11.48811 35827 ft 454 kts 302°
2026-05-05 21:09 50.76044 11.40836 35828 ft 455 kts 302°
2026-05-05 21:09 50.79836 11.32824 35825 ft 455 kts 302°
2026-05-05 21:10 50.83618 11.24810 35821 ft 455 kts 302°
2026-05-05 21:10 50.87388 11.16778 35821 ft 455 kts 302°
2026-05-05 21:11 50.91143 11.08748 35818 ft 456 kts 302°
2026-05-05 21:11 50.94917 11.00668 35818 ft 456 kts 302°
2026-05-05 21:12 50.98688 10.92582 35818 ft 456 kts 302°
2026-05-05 21:12 51.02454 10.84460 35820 ft 456 kts 302°
2026-05-05 21:13 51.06187 10.76389 35821 ft 457 kts 302°
2026-05-05 21:13 51.09950 10.68237 35821 ft 457 kts 302°
2026-05-05 21:14 51.13703 10.60074 35820 ft 457 kts 302°
2026-05-05 21:14 51.17452 10.51887 35824 ft 457 kts 301°
2026-05-05 21:15 51.21168 10.43747 35829 ft 457 kts 301°
2026-05-05 21:15 51.24864 10.35501 35828 ft 455 kts 297°
2026-05-05 21:16 51.27724 10.26590 35834 ft 451 kts 291°
2026-05-05 21:16 51.30471 10.17587 35837 ft 451 kts 291°
2026-05-05 21:17 51.33213 10.08573 35839 ft 450 kts 291°
2026-05-05 21:17 51.35922 9.99624 35838 ft 450 kts 291°
2026-05-05 21:18 51.38644 9.90599 35833 ft 451 kts 291°
2026-05-05 21:18 51.41361 9.81550 35834 ft 451 kts 291°
2026-05-05 21:19 51.44069 9.72492 35827 ft 450 kts 291°
2026-05-05 21:19 51.46750 9.63496 35824 ft 451 kts 290°
2026-05-05 21:20 51.49447 9.54406 35822 ft 451 kts 290°
2026-05-05 21:20 51.52139 9.45320 35819 ft 451 kts 290°
2026-05-05 21:21 51.54823 9.36207 35815 ft 452 kts 290°
2026-05-05 21:21 51.57487 9.27125 35814 ft 452 kts 290°
2026-05-05 21:22 51.60159 9.17976 35816 ft 453 kts 290°
2026-05-05 21:22 51.62834 9.08791 35816 ft 453 kts 290°
2026-05-05 21:23 51.65509 8.99591 35819 ft 454 kts 290°
2026-05-05 21:23 51.68180 8.90356 35822 ft 455 kts 290°
2026-05-05 21:24 51.70828 8.81163 35826 ft 455 kts 290°
2026-05-05 21:24 51.73494 8.71891 35827 ft 456 kts 289°
2026-05-05 21:25 51.76149 8.62586 35832 ft 457 kts 289°
2026-05-05 21:25 51.78796 8.53260 35833 ft 457 kts 289°
2026-05-05 21:26 51.81426 8.43981 35834 ft 458 kts 289°
2026-05-05 21:26 51.84072 8.34615 35840 ft 458 kts 289°
2026-05-05 21:27 51.86708 8.25237 35843 ft 458 kts 289°
2026-05-05 21:27 51.89339 8.15849 35849 ft 458 kts 289°
2026-05-05 21:28 51.91970 8.06453 35846 ft 458 kts 288°
2026-05-05 21:28 51.94578 7.97105 35666 ft 459 kts 288°
2026-05-05 21:29 51.95882 7.92391 35415 ft 459 kts 288°
2026-05-05 21:29 51.97185 7.87667 35164 ft 460 kts 288°
2026-05-05 21:29 51.98491 7.82921 34915 ft 461 kts 288°
2026-05-05 21:29 51.99796 7.78159 34665 ft 463 kts 287°
2026-05-05 21:30 52.01106 7.73376 34414 ft 464 kts 287°
2026-05-05 21:30 52.02418 7.68581 34165 ft 465 kts 287°
2026-05-05 21:30 52.03737 7.63768 33915 ft 467 kts 287°
2026-05-05 21:30 52.05058 7.58947 33660 ft 468 kts 287°
2026-05-05 21:31 52.06366 7.54167 33419 ft 468 kts 287°
2026-05-05 21:31 52.07681 7.49339 33170 ft 466 kts 287°
2026-05-05 21:31 52.08988 7.44525 32926 ft 464 kts 287°
2026-05-05 21:31 52.10284 7.39745 32666 ft 461 kts 288°
2026-05-05 21:32 52.11570 7.34990 32418 ft 458 kts 288°
2026-05-05 21:32 52.12845 7.30271 31966 ft 454 kts 288°
2026-05-05 21:32 52.14110 7.25582 31360 ft 451 kts 288°
2026-05-05 21:32 52.15363 7.20926 30768 ft 448 kts 288°
2026-05-05 21:33 52.16607 7.16293 30183 ft 445 kts 289°
2026-05-05 21:33 52.17821 7.11751 29613 ft 442 kts 289°
2026-05-05 21:33 52.19038 7.07176 29045 ft 438 kts 289°
2026-05-05 21:33 52.20240 7.02636 28486 ft 435 kts 289°
2026-05-05 21:34 52.21562 6.98215 27930 ft 435 kts 297°
2026-05-05 21:34 52.23299 6.94191 27492 ft 432 kts 306°
2026-05-05 21:34 52.25194 6.90448 27101 ft 425 kts 306°
2026-05-05 21:34 52.27055 6.86741 26716 ft 419 kts 306°
2026-05-05 21:35 52.28887 6.83064 26336 ft 415 kts 306°
2026-05-05 21:35 52.30696 6.79416 25956 ft 412 kts 306°
2026-05-05 21:35 52.32469 6.75837 25580 ft 409 kts 306°
2026-05-05 21:35 52.34254 6.72239 25203 ft 407 kts 306°
2026-05-05 21:36 52.36032 6.68658 24820 ft 404 kts 306°
2026-05-05 21:36 52.37796 6.65106 24449 ft 401 kts 306°
2026-05-05 21:36 52.39549 6.61573 24087 ft 398 kts 306°
2026-05-05 21:36 52.41286 6.58060 23721 ft 396 kts 306°
2026-05-05 21:37 52.43010 6.54568 23346 ft 393 kts 306°
2026-05-05 21:37 52.44692 6.51061 22988 ft 389 kts 301°
2026-05-05 21:37 52.46010 6.47235 22631 ft 383 kts 290°
2026-05-05 21:37 52.46865 6.43139 22275 ft 377 kts 280°
2026-05-05 21:38 52.47259 6.38985 21930 ft 372 kts 271°
2026-05-05 21:38 52.47465 6.34760 21582 ft 371 kts 272°
2026-05-05 21:38 52.47676 6.30555 21239 ft 369 kts 272°
2026-05-05 21:38 52.47887 6.26375 20896 ft 367 kts 272°
2026-05-05 21:39 52.48095 6.22224 20564 ft 365 kts 272°
2026-05-05 21:39 52.48298 6.18087 20217 ft 363 kts 271°
2026-05-05 21:39 52.48498 6.13977 19883 ft 361 kts 271°
2026-05-05 21:39 52.48698 6.09882 19544 ft 359 kts 271°
2026-05-05 21:40 52.48892 6.05862 19216 ft 357 kts 271°
2026-05-05 21:40 52.49087 6.01805 18884 ft 356 kts 271°
2026-05-05 21:40 52.49280 5.97770 18552 ft 354 kts 271°
2026-05-05 21:40 52.49469 5.93751 18225 ft 352 kts 271°
2026-05-05 21:41 52.49653 5.89757 17903 ft 350 kts 271°
2026-05-05 21:41 52.49835 5.85791 17582 ft 348 kts 272°
2026-05-05 21:41 52.50016 5.81830 17256 ft 347 kts 272°
2026-05-05 21:41 52.50195 5.77891 16936 ft 345 kts 272°
2026-05-05 21:42 52.50367 5.74035 16620 ft 343 kts 272°
2026-05-05 21:42 52.50538 5.70146 16303 ft 341 kts 272°
2026-05-05 21:42 52.50710 5.66275 15987 ft 339 kts 272°
2026-05-05 21:42 52.50881 5.62426 15690 ft 337 kts 271°
2026-05-05 21:43 52.50773 5.58618 15369 ft 334 kts 259°
2026-05-05 21:43 52.50189 5.54947 15060 ft 331 kts 248°
2026-05-05 21:43 52.49174 5.51579 14749 ft 328 kts 238°
2026-05-05 21:43 52.47998 5.48419 14448 ft 328 kts 238°
2026-05-05 21:44 52.46835 5.45266 14143 ft 327 kts 239°
2026-05-05 21:44 52.45664 5.42079 13843 ft 326 kts 239°
2026-05-05 21:44 52.44496 5.38901 13540 ft 325 kts 239°
2026-05-05 21:44 52.43328 5.35736 13239 ft 324 kts 239°
2026-05-05 21:45 52.42164 5.32585 12925 ft 323 kts 239°
2026-05-05 21:45 52.41004 5.29448 12629 ft 322 kts 239°
2026-05-05 21:45 52.39847 5.26323 12328 ft 321 kts 239°
2026-05-05 21:45 52.38689 5.23201 12023 ft 320 kts 239°
2026-05-05 21:46 52.37535 5.20093 11716 ft 319 kts 239°
2026-05-05 21:46 52.36399 5.17045 11440 ft 319 kts 239°
2026-05-05 21:46 52.35244 5.13952 11143 ft 318 kts 239°
2026-05-05 21:46 52.34198 5.10778 10853 ft 317 kts 248°
2026-05-05 21:47 52.33591 5.07328 10549 ft 316 kts 261°
2026-05-05 21:47 52.33445 5.03753 10257 ft 315 kts 270°
2026-05-05 21:47 52.33429 5.00219 10068 ft 305 kts 270°
2026-05-05 21:47 52.33407 4.96806 9891 ft 296 kts 270°
2026-05-05 21:48 52.33381 4.93470 9710 ft 292 kts 270°
2026-05-05 21:48 52.33352 4.90160 9459 ft 291 kts 270°
2026-05-05 21:48 52.33324 4.86903 9135 ft 290 kts 270°
2026-05-05 21:48 52.33295 4.83617 8795 ft 289 kts 270°
2026-05-05 21:49 52.33266 4.80334 8454 ft 288 kts 270°
2026-05-05 21:49 52.33236 4.77066 8119 ft 286 kts 270°
2026-05-05 21:49 52.33206 4.73868 7989 ft 275 kts 270°
2026-05-05 21:49 52.33175 4.70804 7855 ft 264 kts 270°
2026-05-05 21:50 52.33148 4.67850 7665 ft 257 kts 270°
2026-05-05 21:50 52.33123 4.64969 7482 ft 252 kts 270°
2026-05-05 21:50 52.33096 4.62108 7249 ft 251 kts 270°
2026-05-05 21:50 52.33067 4.59264 6994 ft 250 kts 270°
2026-05-05 21:51 52.33036 4.56466 6736 ft 249 kts 270°
2026-05-05 21:51 52.33006 4.53647 6566 ft 248 kts 270°
2026-05-05 21:51 52.32975 4.50829 6441 ft 248 kts 270°
2026-05-05 21:51 52.32944 4.48018 6314 ft 248 kts 270°
2026-05-05 21:52 52.32880 4.42412 6063 ft 242 kts 270°
2026-05-05 21:52 52.32519 4.39759 5936 ft 241 kts 241°
2026-05-05 21:52 52.31381 4.37845 5821 ft 241 kts 207°
2026-05-05 21:53 52.29782 4.37185 5692 ft 239 kts 182°
2026-05-05 21:53 52.28117 4.37002 5567 ft 240 kts 182°
2026-05-05 21:53 52.26451 4.36802 5442 ft 240 kts 182°
2026-05-05 21:53 52.24797 4.37009 5194 ft 236 kts 158°
2026-05-05 21:54 52.23423 4.38348 4875 ft 229 kts 130°
2026-05-05 21:54 52.22564 4.40474 4564 ft 223 kts 110°
2026-05-05 21:54 52.21914 4.42773 4247 ft 223 kts 111°
2026-05-05 21:54 52.21265 4.45035 3947 ft 224 kts 110°
2026-05-05 21:55 52.20880 4.47451 3629 ft 219 kts 89°
2026-05-05 21:55 52.20836 4.49922 3333 ft 218 kts 88°
2026-05-05 21:55 52.20892 4.52379 2991 ft 217 kts 73°
2026-05-05 21:55 52.21510 4.54578 2700 ft 212 kts 56°
2026-05-05 21:56 52.22297 4.56600 2429 ft 207 kts 56°
2026-05-05 21:56 52.23030 4.58489 2151 ft 188 kts 56°
2026-05-05 21:56 52.23696 4.60211 1905 ft 172 kts 55°
2026-05-05 21:56 52.24307 4.61791 1694 ft 158 kts 55°
2026-05-05 21:57 52.24856 4.63212 1504 ft 142 kts 55°
2026-05-05 21:57 52.25367 4.64535 1315 ft 135 kts 55°
2026-05-05 21:57 52.25864 4.65822 1140 ft 133 kts 55°
2026-05-05 21:57 52.26358 4.67099 960 ft 133 kts 55°
2026-05-05 21:58 52.26846 4.68365 789 ft 132 kts 55°
2026-05-05 21:58 52.27337 4.69637 623 ft 132 kts 55°
2026-05-05 21:58 52.27826 4.70907 434 ft 132 kts 55°
2026-05-05 21:58 52.28319 4.72187 261 ft 134 kts 56°
2026-05-05 21:59 52.28808 4.73464 101 ft 134 kts 56°
2026-05-05 21:59 52.29293 4.74720 8 ft 122 kts 56°
2026-05-05 21:59 52.29683 4.75729 -2 ft 83 kts 58°
2026-05-05 21:59 52.29847 4.76161 -4 ft 21 kts 59°
2026-05-05 22:00 52.29927 4.76382 -4 ft 23 kts 57°
2026-05-05 22:00 52.30043 4.76551 -2 ft 21 kts 30°
2026-05-05 22:00 52.30122 4.76623 -1 ft 11 kts 27°
2026-05-05 22:00 52.30195 4.76684 -1 ft 12 kts 27°
2026-05-05 22:01 52.30275 4.76754 -1 ft 14 kts 34°
2026-05-05 22:01 52.30337 4.76888 -1 ft 16 kts 58°
2026-05-05 22:01 52.30398 4.77048 -1 ft 17 kts 58°
2026-05-05 22:01 52.30462 4.77214 -1 ft 15 kts 58°
2026-05-05 22:02 52.30521 4.77365 -1 ft 17 kts 57°
2026-05-05 22:02 52.30574 4.77501 -1 ft 6 kts 53°
2026-05-05 22:02 52.30613 4.77508 -1 ft 7 kts 345°
2026-05-05 22:02 52.30657 4.77471 -1 ft 8 kts 330°
2026-05-05 22:03 52.30716 4.77457 -1 ft 10 kts
2026-05-05 22:03 52.30787 4.77464 -1 ft 11 kts
2026-05-05 22:03 52.30837 4.77399 -1 ft 11 kts 277°
2026-05-05 22:03 52.30841 4.77329 -1 ft 2 kts 275°
2026-05-05 22:04 52.30834 4.77305 -1 ft 3 kts 233°
2026-05-05 22:04 52.30817 4.77297 -1 ft 3 kts 189°
2026-05-05 22:04 52.30796 4.77293 -1 ft 3 kts 183°
2026-05-05 22:04 52.30783 4.77292 -1 ft 0 kts 183°